Regional Weather Roundup
Issued by NWS

Home | Current Version | Previous Version | Text Only | Print | Product List | Glossary Off
Versions: 1 2 3 4 5 6 7 8 9 10 11 12 13 14 15 16 17 18 19 20 21 22 23 24 25 26 27 28 29 30 31 32 33 34 35 36 37 38 39 40 41 42 43 44 45 46 47 48 49 50

000
ASUS43 KLMK 242310
RWRKY
KENTUCKY REGIONAL WEATHER ROUNDUP
NATIONAL WEATHER SERVICE LOUISVILLE KY
700 PM EDT TUE APR 24 2018

NOTE "FAIR" INDICATES FEW OR NO CLOUDS BELOW 12,000 FEET
WITH NO SIGNIFICANT WEATHER AND/OR OBSTRUCTIONS TO VISIBILITY.

KYZ001>023-026-027-061>063-070>075-250000-
WESTERN AND SOUTH CENTRAL KENTUCKY

CITY           SKY/WX    TMP DP  RH WIND       PRES   REMARKS
PADUCAH        CLOUDY    62  55  77 NW7       29.95R
HENDERSON      CLOUDY    59  53  80 N6        29.95R
OWENSBORO      LGT RAIN  55  54  94 N7        29.93S FOG
HOPKINSVILLE   NOT AVBL
BOWLING GREEN  CLOUDY    59  55  87 NW9       29.91R
GLASGOW        CLOUDY    57  54  89 NW3       29.90R
$$

KYZ024-025-028>034-038-045-046-053-250000-
NORTH CENTRAL KENTUCKY

CITY           SKY/WX    TMP DP  RH WIND       PRES   REMARKS
LOUISVILLE/SDF CLOUDY    58  55  90 N6        29.89S
LOUISVILLE/LOU CLOUDY    58  56  93 NW6       29.90S
FORT KNOX      CLOUDY    57  54  90 N8        29.90S
$$

KYZ035>037-039>044-047>052-055>060-089>105-250000-
NORTHEAST KENTUCKY

CITY           SKY/WX    TMP DP  RH WIND       PRES   REMARKS
LEXINGTON      CLOUDY    58  54  86 NW6       29.88S
COVINGTON      DRIZZLE   55  54  96 N7        29.89S FOG
FRANKFORT      CLOUDY    58  53  84 NW3       29.87S
$$

KYZ054-064>069-076>088-106>120-250000-
SOUTHEAST KENTUCKY

CITY           SKY/WX    TMP DP  RH WIND       PRES   REMARKS
JACKSON        CLOUDY    56  53  90 VRB3      29.86S
LONDON         LGT RAIN  62  54  74 NW6       29.85S
SOMERSET       LGT RAIN  57  55  94 N5        29.88S
MIDDLESBORO    RAIN      59  59 100 CALM      29.84F
MONTICELLO     RAIN      58  56  93 NW7       29.89R
$$





USA.gov is the U.S. government's official web portal to all federal, state and local government web resources and services.